Regional Weather Roundup
Issued by NWS

Home | Current Version | Previous Version | Graphics & Text | Print | Product List | Glossary On
Versions: 1 2 3 4 5 6 7 8 9 10 11 12 13 14 15 16 17 18 19 20 21 22 23 24 25 26 27 28 29 30 31 32 33 34 35 36 37 38 39 40 41 42 43 44 45 46 47 48 49 50
000
ASUS43 KLMK 041602
RWRKY
KENTUCKY REGIONAL WEATHER ROUNDUP
NATIONAL WEATHER SERVICE LOUISVILLE KY
1200 PM EDT FRI SEP 04 2015

NOTE "FAIR" INDICATES FEW OR NO CLOUDS BELOW 12,000 FEET
WITH NO SIGNIFICANT WEATHER AND/OR OBSTRUCTIONS TO VISIBILITY.

KYZ001>023-026-027-061>063-070>075-041700-
WESTERN AND SOUTH CENTRAL KENTUCKY

CITY           SKY/WX    TMP DP  RH WIND       PRES   REMARKS
PADUCAH        SUNNY     89  70  53 SE5       30.04S HX  94
HENDERSON      SUNNY     88  70  55 CALM      30.04R HX  92
OWENSBORO      SUNNY     91  71  51 VRB3      30.06R HX  97
HOPKINSVILLE   SUNNY     87  68  53 VRB3      30.05S HX  91
BOWLING GREEN  SUNNY     88  69  53 VRB3      30.06S HX  92
GLASGOW        NOT AVBL
$$

KYZ024-025-028>034-038-045-046-053-041700-
NORTH CENTRAL KENTUCKY

CITY           SKY/WX    TMP DP  RH WIND       PRES   REMARKS
LOUISVILLE/SDF MOSUNNY   90  66  45 VRB5      30.05S HX  92
LOUISVILLE/LOU SUNNY     88  67  49 VRB3      30.06S HX  91
FORT KNOX      MOSUNNY   89  68  50 VRB2      30.06R HX  92
$$

KYZ035>037-039>044-047>052-055>060-089>105-041700-
NORTHEAST KENTUCKY

CITY           SKY/WX    TMP DP  RH WIND       PRES   REMARKS
LEXINGTON      SUNNY     89  65  44 VRB3      30.08S HX  91
COVINGTON      MOSUNNY   88  66  48 W7        30.07R HX  90
FRANKFORT      SUNNY     88  66  48 VRB3      30.07R HX  90
$$

KYZ054-064>069-076>088-106>120-041700-
SOUTHEAST KENTUCKY

CITY           SKY/WX    TMP DP  RH WIND       PRES   REMARKS
JACKSON        SUNNY     84  70  62 VRB3      30.11R
LONDON         SUNNY     87  65  47 CALM      30.10R
SOMERSET       NOT AVBL
MIDDLESBORO    SUNNY     80  69  70 CALM      30.11S
MONTICELLO     SUNNY     87  69  54 VRB3      30.11S HX  91
$$




USA.gov is the U.S. government's official web portal to all federal, state and local government web resources and services.